{"data":{"norad_id":54764,"intl_designator":"2022-175G","name":"STARLINK-5458","alt_names":[],"object_type":"PAYLOAD","status":"ACTIVE","operator":null,"country":"US","launch_date":"2022-12-17","launch_site_code":"AFETR","launch_vehicle":null,"mission":null,"orbit_class":"UNKNOWN","rcs_meters":null,"size_class":null,"mass_kg":null,"dimensions":null,"purposes":["comms"],"wikipedia_slug":null,"has_3d_model":false,"image_url":null,"decayed_at":null,"tle_current":{"epoch":"2026-09-20T15:56:01.487904Z","epoch_age_seconds":75174,"freshness":"FRESH","line1":"1 54764U 22175G   26263.66390611 -.00000072  00000+0  90029-5 0  9998","line2":"2 54764  53.1610 236.9601 0001308  86.8704 273.2448 15.34389924209511","mean_motion":15.34389924,"eccentricity":0.0001308,"inclination_deg":53.161,"raan_deg":236.9601,"arg_perigee_deg":86.8704,"mean_anomaly_deg":273.2448,"bstar":9.0029e-6,"rev_number":20951,"period_min":93.84837435885,"perigee_km":461.83840254577,"apogee_km":463.62797418705,"semimajor_km":6840.8701883664,"source":"CELESTRAK","updated_at":"2026-09-21T09:00:33.120945Z"}}}